Stündliche Wetter Kzyl-Mechet

Heute, 14 Mai, Freitag

Zeit Temperatur Niederschläge Wind Luftdruck Luftfeuchtigkeit
00:00 +18°C° 0 mm 4 m/S 757 mmHg 49%
01:00 +18°C° 0 mm 3 m/S 757 mmHg 49%
02:00 +18°C° 0 mm 3 m/S 757 mmHg 49%
03:00 +17°C° 0 mm 3 m/S 757 mmHg 49%
04:00 +18°C° 0 mm 3 m/S 757 mmHg 50%
05:00 +19°C° 0 mm 4 m/S 757 mmHg 50%
06:00 +19°C° 0 mm 4 m/S 758 mmHg 51%
07:00 +21°C° 0 mm 4 m/S 758 mmHg 45%
08:00 +23°C° 0 mm 5 m/S 758 mmHg 40%
09:00 +26°C° 0 mm 5 m/S 758 mmHg 34%
10:00 +28°C° 0 mm 5 m/S 758 mmHg 31%
11:00 +29°C° 0 mm 5 m/S 758 mmHg 28%
12:00 +30°C° 0 mm 5 m/S 758 mmHg 26%
13:00 +30°C° 0 mm 5 m/S 757 mmHg 25%
14:00 +30°C° 0 mm 5 m/S 757 mmHg 25%
15:00 +30°C° 0 mm 5 m/S 757 mmHg 24%
16:00 +29°C° 0 mm 4 m/S 757 mmHg 30%
17:00 +28°C° 0 mm 4 m/S 757 mmHg 35%
18:00 +26°C° 0 mm 3 m/S 757 mmHg 41%
19:00 +25°C° 0 mm 3 m/S 757 mmHg 41%
20:00 +23°C° 0 mm 2 m/S 757 mmHg 41%
21:00 +21°C° 0 mm 2 m/S 757 mmHg 41%
22:00 +21°C° 0 mm 2 m/S 757 mmHg 42%
23:00 +20°C° 0 mm 2 m/S 757 mmHg 42%

Morgen, 15 Mai, Samstag

Zeit Temperatur Niederschläge Wind Luftdruck Luftfeuchtigkeit
00:00 +20°C° 0 mm 2 m/S 756 mmHg 43%
01:00 +19°C° 0 mm 2 m/S 757 mmHg 43%
02:00 +19°C° 0 mm 2 m/S 757 mmHg 44%
03:00 +18°C° 0 mm 2 m/S 757 mmHg 44%
04:00 +19°C° 0 mm 2 m/S 757 mmHg 45%
05:00 +20°C° 0 mm 2 m/S 757 mmHg 46%
06:00 +21°C° 0 mm 2 m/S 757 mmHg 47%
07:00 +24°C° 0 mm 3 m/S 757 mmHg 42%
08:00 +26°C° 0 mm 4 m/S 757 mmHg 37%
09:00 +28°C° 0 mm 4 m/S 757 mmHg 31%
10:00 +29°C° 0 mm 4 m/S 757 mmHg 29%
11:00 +30°C° 0 mm 4 m/S 757 mmHg 26%
12:00 +32°C° 0 mm 4 m/S 757 mmHg 23%
13:00 +33°C° 0 mm 4 m/S 756 mmHg 23%
14:00 +33°C° 0 mm 4 m/S 756 mmHg 23%
15:00 +33°C° 0 mm 3 m/S 756 mmHg 22%
16:00 +31°C° 0 mm 3 m/S 756 mmHg 27%
17:00 +29°C° 0 mm 2 m/S 755 mmHg 32%
18:00 +28°C° 0 mm 2 m/S 755 mmHg 37%
19:00 +27°C° 0 mm 2 m/S 755 mmHg 38%
20:00 +25°C° 0 mm 2 m/S 755 mmHg 39%
21:00 +24°C° 0 mm 2 m/S 755 mmHg 40%
22:00 +23°C° 0 mm 2 m/S 755 mmHg 40%
23:00 +23°C° 0 mm 2 m/S 755 mmHg 40%

übermorgen, 16 Mai, Sonntag

Zeit Temperatur Niederschläge Wind Luftdruck Luftfeuchtigkeit
00:00 +21°C° 0 mm 2 m/S 754 mmHg 40%
01:00 +21°C° 0 mm 2 m/S 754 mmHg 40%
02:00 +20°C° 0 mm 2 m/S 755 mmHg 40%
03:00 +20°C° 0 mm 2 m/S 755 mmHg 40%
04:00 +21°C° 0 mm 2 m/S 755 mmHg 42%
05:00 +21°C° 0 mm 2 m/S 755 mmHg 44%
06:00 +23°C° 0 mm 2 m/S 755 mmHg 46%
07:00 +25°C° 0 mm 3 m/S 755 mmHg 42%
08:00 +27°C° 0 mm 3 m/S 755 mmHg 38%
09:00 +30°C° 0 mm 4 m/S 754 mmHg 34%
10:00 +30°C° 0 mm 4 m/S 754 mmHg 31%
11:00 +32°C° 0 mm 4 m/S 754 mmHg 28%
12:00 +33°C° 0 mm 4 m/S 754 mmHg 26%
13:00 +33°C° 0 mm 4 m/S 754 mmHg 26%
14:00 +33°C° 0 mm 4 m/S 754 mmHg 26%
15:00 +33°C° 0 mm 4 m/S 754 mmHg 26%
16:00 +30°C° 0 mm 4 m/S 753 mmHg 32%
17:00 +28°C° 0 mm 3 m/S 753 mmHg 37%
18:00 +27°C° 0 mm 3 m/S 753 mmHg 43%
19:00 +26°C° 0 mm 3 m/S 753 mmHg 43%
20:00 +25°C° 0 mm 3 m/S 753 mmHg 42%
21:00 +24°C° 0 mm 3 m/S 753 mmHg 41%
22:00 +22°C° 0 mm 3 m/S 753 mmHg 46%
23:00 +21°C° 0 mm 3 m/S 753 mmHg 50%

17 Mai, Montag

Zeit Temperatur Niederschläge Wind Luftdruck Luftfeuchtigkeit
00:00 +19°C° 0 mm 3 m/S 753 mmHg 55%
01:00 +19°C° 0 mm 3 m/S 754 mmHg 56%
02:00 +19°C° 0 mm 3 m/S 754 mmHg 57%
03:00 +19°C° 0 mm 2 m/S 754 mmHg 59%
04:00 +20°C° 0 mm 2 m/S 754 mmHg 57%
05:00 +21°C° 0 mm 2 m/S 754 mmHg 56%
06:00 +23°C° 0 mm 2 m/S 754 mmHg 54%
07:00 +25°C° 0 mm 2 m/S 754 mmHg 49%
08:00 +27°C° 0 mm 3 m/S 754 mmHg 44%
09:00 +28°C° 0 mm 3 m/S 754 mmHg 39%
10:00 +30°C° 0 mm 3 m/S 754 mmHg 36%
11:00 +31°C° 0 mm 3 m/S 754 mmHg 33%
12:00 +32°C° 0 mm 2 m/S 754 mmHg 30%
13:00 +32°C° 0 mm 2 m/S 754 mmHg 29%
14:00 +32°C° 0 mm 2 m/S 753 mmHg 28%
15:00 +32°C° 0 mm 2 m/S 753 mmHg 26%
16:00 +31°C° 0 mm 2 m/S 753 mmHg 30%
17:00 +30°C° 0 mm 2 m/S 753 mmHg 34%
18:00 +29°C° 0 mm 2 m/S 753 mmHg 38%
19:00 +28°C° 0 mm 2 m/S 753 mmHg 39%
20:00 +26°C° 0 mm 2 m/S 753 mmHg 40%
21:00 +25°C° 0 mm 2 m/S 753 mmHg 41%
22:00 +25°C° 0 mm 2 m/S 753 mmHg 40%
23:00 +25°C° 0 mm 1 m/S 753 mmHg 39%

18 Mai, Dienstag

Zeit Temperatur Niederschläge Wind Luftdruck Luftfeuchtigkeit
00:00 +25°C° 0 mm 1 m/S 753 mmHg 38%
01:00 +24°C° 0 mm 1 m/S 753 mmHg 42%
02:00 +23°C° 0 mm 2 m/S 753 mmHg 46%
03:00 +21°C° 0 mm 2 m/S 753 mmHg 51%
04:00 +23°C° 0 mm 2 m/S 753 mmHg 49%
05:00 +24°C° 0 mm 1 m/S 753 mmHg 48%
06:00 +25°C° 0 mm 1 m/S 753 mmHg 47%
07:00 +27°C° 0 mm 1 m/S 753 mmHg 43%
08:00 +29°C° 0 mm 2 m/S 753 mmHg 39%
09:00 +30°C° 0 mm 2 m/S 753 mmHg 34%
10:00 +31°C° 0 mm 2 m/S 753 mmHg 31%
11:00 +32°C° 0 mm 1 m/S 753 mmHg 28%
12:00 +33°C° 0 mm 1 m/S 753 mmHg 24%
13:00 +33°C° 0 mm 1 m/S 752 mmHg 24%
14:00 +33°C° 0 mm 1 m/S 752 mmHg 24%
15:00 +33°C° 0 mm 1 m/S 752 mmHg 23%
16:00 +31°C° 0 mm 2 m/S 752 mmHg 30%
17:00 +29°C° 0 mm 2 m/S 752 mmHg 37%
18:00 +28°C° 0 mm 2 m/S 752 mmHg 44%
19:00 +27°C° 0 mm 2 m/S 752 mmHg 45%
20:00 +26°C° 0 mm 2 m/S 752 mmHg 46%
21:00 +24°C° 0 mm 2 m/S 752 mmHg 47%
22:00 +24°C° 0 mm 2 m/S 752 mmHg 46%
23:00 +24°C° 0 mm 2 m/S 752 mmHg 45%

19 Mai, Mittwoch

Zeit Temperatur Niederschläge Wind Luftdruck Luftfeuchtigkeit
00:00 +24°C° 0 mm 1 m/S 752 mmHg 43%
01:00 +23°C° 0 mm 1 m/S 752 mmHg 46%
02:00 +23°C° 0 mm 1 m/S 752 mmHg 48%
03:00 +22°C° 0 mm 1 m/S 752 mmHg 50%
04:00 +23°C° 0 mm 1 m/S 752 mmHg 49%
05:00 +24°C° 0 mm 1 m/S 753 mmHg 48%
06:00 +25°C° 0 mm 1 m/S 753 mmHg 47%
07:00 +27°C° 0 mm 1 m/S 753 mmHg 42%
08:00 +29°C° 0 mm 2 m/S 753 mmHg 37%
09:00 +31°C° 0 mm 2 m/S 753 mmHg 32%
10:00 +31°C° 0 mm 2 m/S 753 mmHg 30%
11:00 +33°C° 0 mm 3 m/S 753 mmHg 28%
12:00 +33°C° 0 mm 3 m/S 753 mmHg 25%
13:00 +33°C° 0 mm 3 m/S 753 mmHg 26%
14:00 +33°C° 0 mm 3 m/S 753 mmHg 26%
15:00 +34°C° 0 mm 3 m/S 753 mmHg 26%
16:00 +31°C° 0 mm 3 m/S 753 mmHg 31%
17:00 +30°C° 0 mm 3 m/S 753 mmHg 37%
18:00 +29°C° 0 mm 3 m/S 753 mmHg 42%
19:00 +27°C° 0 mm 3 m/S 753 mmHg 45%
20:00 +26°C° 0 mm 3 m/S 754 mmHg 48%
21:00 +25°C° 0 mm 3 m/S 754 mmHg 51%
22:00 +24°C° 0 mm 3 m/S 754 mmHg 53%
23:00 +22°C° 0 mm 4 m/S 755 mmHg 55%
Mehr zeigen

Wir brauchen deine Erlaubnis

Meteoprog und unser Service Anbieter werden persönliche Daten aufbewahren, so wie Cookies, Geräte Bezeichnung oder ähnliche Technologien von deinem Gerät und Prozess, so wie Persönliche Daten Inhalte und Werbungen, genauso wie social Media und den Verkehr zu analysieren.

  • Aufbewahrung und/oder Zugang zu deiner Geräte Informationen.

    Cookies, Geräte Bezeichnung oder andere Informationen, können aufbewahrt oder Zugang zu deinem Gerät erhalten, für den Grund, der oben angegeben wird.

  • Personalisierte Werbung und Inhalte, Messungen, Einblick in das Publikum und Produkt Entwicklung.

    Werbungen und Inhalte können personalisiert werden, basierend auf ein Profil. Mehr Daten können besser personalisierte Werbungen und Inhalte hinzufügen. Werbung und Inhalte können gezeigt und gemessen werden. Einblicke über das Publikum, welche die Werbung gesehen haben und den Inhalt, können abgeleitet werden. So wie Daten können genutzt werden, um es zu verbessern oder die Benutzer Erfahrung zu verbessern das System und die Software.

Wenn du “Ich stimme zu” klickst, erlaubst du uns, die Cookies zu benutzen die Geräte Bezeichnung, den Web oder ähnliche Technologien zu benutzen. Deine Settings, können in deinem Gerät bei deinem Browser geändert werden.

Für den bestimmten Zweck, berechtigten Interessen beruhen darauf, mehr als auf den Inhalt. Du kannst mehr darüber in unseren Privaten und Cookie Politik lesen.